Regional Weather Roundup
Issued by NWS Goodland, KS

Home | Current Version | Previous Version | Graphics & Text | Print | Product List | Glossary On
Versions: 1 2 3 4 5 6 7 8 9 10 11 12 13 14 15 16 17 18 19 20 21 22 23 24 25 26 27 28 29 30 31 32 33 34 35 36 37 38 39 40 41 42 43 44 45 46 47 48 49 50
000
ASUS43 KGLD 122008
RWRGLD

GOODLAND FORECAST AREA HOURLY WEATHER ROUNDUP
NATIONAL WEATHER SERVICE GOODLAND KS
200 PM MDT SAT JUL 12 2014

...OFFICIAL OBSERVATIONS...

CITY           SKY/WX    TMP DP  RH WIND       PRES   REMARKS
GOODLAND KS    MOSUNNY   85  65  51 NE15      30.14R
HILL CITY KS   SUNNY     96  61  31 SW6       29.98F
IMPERIAL NEB   MOSUNNY   84  66  54 N10       30.14S
MCCOOK NEB     MOSUNNY   85  69  58 NE10      30.07F
AKRON CO       MOSUNNY   79  61  53 N13       30.23F
BURLINGTON CO  MOSUNNY   83  64  52 N15G22    30.18S
LIMON CO       MOSUNNY   83  59  44 N15       30.25F
$$

...UNOFFICIAL OBSERVATIONS...

CITY           SKY/WX    TMP DP  RH WIND       PRES   REMARKS
COLBY KS       SUNNY     88  70  55 N7G18     30.10S
GOVE KS          N/A     92  32  12 CALM        N/A
LENORA KS        N/A     93  32  11 MISG        N/A
NORTON KS      MOSUNNY   91  63  38 N18G25    30.02S
OBERLIN KS     FAIR      88  64  45 N12G18    30.07R
ST FRANCIS KS  MOSUNNY   84  61  45 N13       30.14R
TRIBUNE KS     MOSUNNY   90 N/A N/A N10G20    30.12S
WAKEENEY KS      N/A     97  57  25 MISG        N/A
KIT CARSON CO    N/A     87  63  44 N10G23      N/A
YUMA CO          N/A     80  64  58 N12         N/A
$$



USA.gov is the U.S. government's official web portal to all federal, state and local government web resources and services.